EW1448 Weather Reports


time (UTC)temp
F
wind
direction
speed
knots
gust
knots
rain 1hr
in
rain 24hr
in
rain mn
in
humidity
%
barometer
mb
20211017153038 60 101 0.0 0.0 0.00 0.00 0.00 44 1021.9
20211017151538 60 101 0.0 0.0 0.00 0.00 0.00 43 1021.9
20211017150033 57 253 0.0 0.0 0.00 0.00 0.00 49 1021.9
20211017144534 54 253 0.0 0.0 0.00 0.00 0.00 52 1021.8
20211017143028 51 253 0.0 0.0 0.00 0.00 0.00 57 1021.6
20211017141529 49 253 0.0 0.0 0.00 0.00 0.00 57 1021.6
20211017140034 49 219 0.0 0.0 0.00 0.00 0.00 56 1021.5
20211017014543 61 283 0.0 1.7 0.00 0.00 0.00 35 1020.7
20211017013036 62 269 0.9 1.7 0.00 0.00 0.00 33 1020.6
20211017011534 63 283 0.9 2.6 0.00 0.00 0.00 32 1020.5
20211017001527 72 267 2.6 5.2 0.00 0.00 0.00 25 1020.3
20211017000041 80 180 0.0 1.7 0.00 0.00 0.00 18 1020.3
20211016234546 80 215 0.9 2.6 0.00 0.00 0.00 18 1020.3
20211016180031 70 227 0.9 3.5 0.00 0.00 0.00 17 1024.7
20211016174535 70 223 1.7 5.2 0.00 0.00 0.00 18 1024.8
20211016173026 68 47 0.9 2.6 0.00 0.00 0.00 16 1025.1
20211016171544 67 319 0.0 1.7 0.00 0.00 0.00 19 1025.2
20211016170040 66 23 0.0 2.6 0.00 0.00 0.00 18 1025.4
20211016164538 65 266 0.0 1.7 0.00 0.00 0.00 18 1025.6
20211016163030 64 348 0.0 1.7 0.00 0.00 0.00 20 1025.7
20211016161529 63 288 0.0 0.0 0.00 0.00 0.00 22 1025.9
20211016160023 62 62 0.0 0.9 0.00 0.00 0.00 29 1026.0
20211016154539 60 72 0.0 0.9 0.00 0.00 0.00 29 1026.1
20211016153053 59 22 0.0 1.7 0.00 0.00 0.00 29 1026.3